Regional Weather Roundup
Issued by NWS

Home | Current Version | Previous Version | Graphics & Text | Print | Product List | Glossary On
Versions: 1 2 3 4 5 6 7 8 9 10 11 12 13 14 15 16 17 18 19 20 21 22 23 24 25 26 27 28 29 30 31 32 33 34 35 36 37 38 39 40 41 42 43 44 45 46 47 48 49 50
000
ASUS43 KLMK 020002
RWRKY
KENTUCKY REGIONAL WEATHER ROUNDUP
NATIONAL WEATHER SERVICE LOUISVILLE KY
700 PM EST SUN MAR 01 2015

NOTE "FAIR" INDICATES FEW OR NO CLOUDS BELOW 12,000 FEET
WITH NO SIGNIFICANT WEATHER AND/OR OBSTRUCTIONS TO VISIBILITY.

KYZ001>023-026-027-061>063-070>075-020100-
WESTERN AND SOUTH CENTRAL KENTUCKY

CITY           SKY/WX    TMP DP  RH WIND       PRES   REMARKS
PADUCAH        CLOUDY    37  31  78 N5        30.34R WCI  33
HENDERSON      CLOUDY    34  30  86 NW6       30.34S WCI  29
OWENSBORO      CLOUDY    35  32  89 W5        30.34R WCI  31
HOPKINSVILLE   CLOUDY    39  38  96 NW10      30.31R FOG     WCI  32
BOWLING GREEN    N/A     46  43  89 MISG      30.30S
GLASGOW        NOT AVBL
$$

KYZ024-025-028>034-038-045-046-053-020100-
NORTH CENTRAL KENTUCKY

CITY           SKY/WX    TMP DP  RH WIND       PRES   REMARKS
LOUISVILLE/SDF CLOUDY    38  34  85 NW5       30.30R FOG     WCI  34
LOUISVILLE/LOU CLOUDY    38  34  85 W5        30.31R WCI  34
FORT KNOX      CLOUDY    36  34  92 W6        30.28S WCI  31
$$

KYZ035>037-039>044-047>052-055>060-089>105-020100-
NORTHEAST KENTUCKY

CITY           SKY/WX    TMP DP  RH WIND       PRES   REMARKS
LEXINGTON      FOG       40  39  97 SW5       30.27S VSB 1/4
COVINGTON      LGT SNOW  34  32  92 SW3       30.25F FOG
FRANKFORT      CLOUDY    37  36  96 NW5       30.28R FOG     WCI  33
$$

KYZ054-064>069-076>088-106>120-020100-
SOUTHEAST KENTUCKY

CITY           SKY/WX    TMP DP  RH WIND       PRES   REMARKS
JACKSON        CLOUDY    44  42  93 VRB5      30.26R
LONDON         CLOUDY    47  42  83 S6        30.28S
SOMERSET       NOT AVBL
MIDDLESBORO    NOT AVBL
MONTICELLO     CLOUDY    50  49  96 SW7       30.31S
$$



USA.gov is the U.S. government's official web portal to all federal, state and local government web resources and services.